SL-14 DEB

Satellite information

Favourite Embed

Satellite Type and Status

DEBRISIN ORBIT

Key statistics

Satellite SL-14 DEB at a glance.

Uptime

13836

Days in orbit

Revolutions

≈ 14.6

Per day

Orbit

LEO

Low Earth Orbit

Inclination

82.5

Latest

Satellite identification and parameters

Extended collection of information and parameters for SL-14 DEB.

Object identification

Identified? True

Debris? True

Object name: SL-14 DEB

International designator: 1987-068N

Object number (NORAD): 25187

Object ID (CCSDS): 25187

Country: COMMONWEALTH OF INDEPENDENT STATES (CIS)

Current information (Y/N): Y

RCS size: SMALL

Orbital parameters

Period: 98.843 minutes

Inclination: 82.5358 deg

SMA: 7081.496 km

Apoapsis: 709.941 km

Periapsis: 696.781 km

RAAN: 197.6641 deg

Eccentricy: 0.0009292

Argument of periapsis: 138.4314 deg

Mean anomaly: 221.7595 deg

Mean motion: 14.56851349 rev/day

Mean motion (dot): 0.00009411 rev/day2

B* drag term: 0.0020941 1/REarth

Two-line elements (TLE)

Creation date: July 4, 2025, 10:26 p.m.

Reference frame: TEME

Reference center: EARTH

Epoch: July 4, 2025, 7:06 p.m. UTC

TLE line 0: 0 SL-14 DEB

TLE line 1: 1 25187U 87068N 25185.79589438 .00009411 00000-0 20941-2 0 9999

TLE line 2: 2 25187 82.5358 197.6641 0009292 138.4314 221.7595 14.56851349410277

Live tracking on map

Real-time ground track for satellite SL-14 DEB.

In-orbit conjunctions

A list of the most updated potential collisions computed for object SL-14 DEB.

Target Orbit TCA Probability of collision Miss distance Type
COSMOS 2251 DEB LEO 2024-11-14 17:24:28 0.0006649339 389.0 (m) DEBRIS
FENGYUN 1C DEB SSO 2024-09-21 17:56:39 0.0004101229 55.0 (m) DEBRIS
SL-8 R/B LEO 2024-07-04 15:59:03 0.0002441375 687.0 (m) ROCKET BODY
IRIDIUM 914 LEO 2024-06-13 13:26:19 0.0004187702 786.0 (m) PAYLOAD

Associated space launch

Second generation soviet meteorological satellite

SL-14 DEB was lifted into orbit during the mission ‘Tsiklon-3 | Meteor-2 16’, on board a Tsiklon-3 space rocket.

The launch took place on Aug. 18, 1987, 2:27 a.m. from 32/1.

For more information about the launch, click the button.

Launch to space Tsiklon-3 | Meteor-2 16
Tsiklon-3 | Meteor-2 16

Agency: N/A

Status: Launch Successful

Launch date: Aug. 18, 1987, 2:27 a.m. UTC

Rocket: Tsiklon-3

Launch pad: 32/1

Location: Plesetsk Cosmodrome, Russian Federation

...

Latest news about this satellite

There are no fresh news available about this satellite. Check back as we update our databases every day.


Newsletter sign-up

Weekly statistics, charts and insights to help you stay on top of the space industry.